sat.trackr.live / text

‹ back to catalog

STARLINK-11728 [DTC]

NORAD 64323 · 2025-124G

PAYLOAD ACTIVE UNKNOWN

§ Identity

Operator
Country
US
Launch date
2025-06-10
Launch site
AFETR
Launch vehicle
Mass (kg)
RCS (m²)

Purposes: comms

External: N2YO · Heavens-Above · Gunter

§ Orbital elements

Epoch: 2026-05-24T10:46:53.005440Z

Period
91.67 min
Inclination
42.9988°
Eccentricity
0.0001659
Mean motion
15.70897202 rev/d
Perigee alt
355.2 km
Apogee alt
357.4 km
Semi-major
6,734.5 km
B*
1.5762e-3
RAAN
292.1809°
Arg perigee
267.8012°
Mean anomaly
92.2665°
Rev number
5,475

§ Raw data

STARLINK-11728 [DTC]1 64323U 25124G   26144.44922460  .00207425  00000+0  15762-2 0  99922 64323  42.9988 292.1809 0001659 267.8012  92.2665 15.70897202 54750

JSON: /api/v1/satellites/64323 · /tle

For live sub-satellite position, see the globe view (requires WebGL).

§ Visibility from observer

Set your observer location to see the next 7 days of passes ≥ 10°. The values pass through the URL so the page stays shareable.

No JS? Fill the form by hand. The geolocation button needs JavaScript.